Weather History for Tillamook, OR

Change the Weather History Date:

Thursday, February 21, 2013

  Actual Average (KMMV) Record (KMMV)
Temperature  
Mean Temperature 44 °F 43 °F  
Max Temperature 48 °F 52 °F 65 °F (1923)
Min Temperature 41 °F 35 °F 23 °F (1955)
Degree Days  
Heating Degree Days 20 22  
Month to date heating degree days 476  
Since 1 July heating degree days 3231  
Cooling Degree Days 0 0  
Month to date cooling degree days 0  
Year to date cooling degree days 0  
Moisture  
Dew Point 41 °F    
Average Humidity 90    
Maximum Humidity 100    
Minimum Humidity 81    
Precipitation  
Precipitation 0.27 in 0.14 in 1.88 in (1948)
Month to date precipitation 3.37  
Year to date precipitation 9.47  
Sea Level Pressure  
Sea Level Pressure 30.16 in    
Wind  
Wind Speed 6 mph (South)    
Max Wind Speed 17 mph    
Max Gust Speed 22 mph    
Visibility 7 miles    
Events Rain    
T = Trace of Precipitation, MM = Missing Value Source: NWS Daily Summary

Daily Weather History Graph

Daily Weather History Graph

Search for Another Location

Airport:

Trip Planner

Search our weather history database for the weather conditions in past years. The results will help you decide how hot, cold, wet, or windy it might be!

Date:

Astronomy

Feb. 21, 2013 Rise Set
Actual Time 8:06 AM MST 6:51 PM MST
Civil Twilight 7:36 AM MST 7:21 PM MST
Nautical Twilight 7:02 AM MST 7:56 PM MST
Astronomical Twilight 6:28 AM MST 8:30 PM MST
Moon 3:04 PM MST (2/21) 5:23 AM MST (2/21)
Length of Visible Light 11h 45m
Length of Day
10h 45m
Waxing Gibbous, 84% of the Moon is Illuminated
Feb 21
Waxing Gibbous
Feb 25
Full
Mar 4
Last Quarter
Mar 11
New
Mar 19
First Quarter

Hourly Weather History & Observations

Time (MST) Temp. Windchill Dew Point Humidity Pressure Visibility Wind Dir Wind Speed Gust Speed Precip Events Conditions
12:15 AM 44.6 °F 39.7 °F 41.0 °F 87% 30.10 in 10.0 mi West 9.2 mph - 0.01 in   Overcast
12:35 AM 44.6 °F 40.2 °F 41.0 °F 87% 30.10 in 7.0 mi WSW 8.1 mph - 0.01 in   Overcast
12:55 AM 44.6 °F 40.7 °F 41.0 °F 87% 30.11 in 7.0 mi West 6.9 mph - 0.02 in Rain Light Rain
1:15 AM 44.6 °F 40.7 °F 41.0 °F 87% 30.11 in 10.0 mi West 6.9 mph - N/A   Overcast
1:35 AM 44.6 °F 42.2 °F 41.0 °F 87% 30.11 in 10.0 mi SW 4.6 mph - N/A   Overcast
1:55 AM 44.6 °F - 41.0 °F 87% 30.12 in 7.0 mi Calm Calm - N/A   Overcast
2:15 AM 44.6 °F 43.1 °F 41.0 °F 87% 30.12 in 7.0 mi SW 3.5 mph - N/A   Light Drizzle
2:35 AM 44.6 °F 41.4 °F 39.2 °F 81% 30.13 in 10.0 mi West 5.8 mph - N/A   Overcast
2:55 AM 44.6 °F 43.1 °F 39.2 °F 81% 30.15 in 10.0 mi WSW 3.5 mph - N/A   Overcast
3:15 AM 44.6 °F 40.2 °F 39.2 °F 81% 30.15 in 10.0 mi West 8.1 mph - N/A   Overcast
3:35 AM 42.8 °F 40.1 °F 37.4 °F 81% 30.15 in 7.0 mi NNW 4.6 mph - N/A Rain Rain
3:55 AM 42.8 °F 39.3 °F 37.4 °F 81% 30.15 in 10.0 mi South 5.8 mph - N/A   Overcast
4:15 AM 41.0 °F 36.4 °F 39.2 °F 93% 30.16 in 10.0 mi SSE 6.9 mph - N/A   Overcast
4:55 AM 41.0 °F 38.0 °F 39.2 °F 93% 30.15 in 10.0 mi South 4.6 mph - N/A   Overcast
5:15 AM 41.0 °F - 39.2 °F 93% 30.16 in 10.0 mi Calm Calm - N/A Rain Rain
5:35 AM 41.0 °F 39.0 °F 39.2 °F 93% 30.16 in 10.0 mi SE 3.5 mph - N/A   Overcast
5:55 AM 41.0 °F - 39.2 °F 93% 30.16 in 7.0 mi Calm Calm - N/A Rain Rain
6:15 AM 41.0 °F 39.0 °F 41.0 °F 100% 30.18 in 7.0 mi ESE 3.5 mph - N/A   Overcast
6:35 AM 41.0 °F 38.0 °F 39.2 °F 93% 30.17 in 7.0 mi ESE 4.6 mph - N/A   Overcast
6:55 AM 41.0 °F 38.0 °F 41.0 °F 100% 30.17 in 10.0 mi SE 4.6 mph - N/A   Overcast
7:15 AM 41.0 °F 37.1 °F 41.0 °F 100% 30.18 in 10.0 mi SE 5.8 mph - N/A   Overcast
7:35 AM 41.0 °F 37.1 °F 39.2 °F 93% 30.17 in 10.0 mi SE 5.8 mph - N/A   Overcast
7:55 AM 41.0 °F - 39.2 °F 93% 30.18 in 7.0 mi Calm Calm - N/A   Drizzle
8:15 AM 42.8 °F 41.1 °F 39.2 °F 87% 30.19 in 4.0 mi SSW 3.5 mph - 0.03 in Rain Light Rain
8:35 AM 42.8 °F 41.1 °F 39.2 °F 87% 30.20 in 5.0 mi South 3.5 mph - 0.03 in   Drizzle
8:55 AM 42.8 °F 41.1 °F 39.2 °F 87% 30.20 in 4.0 mi SSE 3.5 mph - 0.04 in Rain Rain
9:15 AM 42.8 °F 40.1 °F 41.0 °F 93% 30.20 in 4.0 mi South 4.6 mph - 0.01 in   Drizzle
9:35 AM 42.8 °F 40.1 °F 41.0 °F 93% 30.20 in 7.0 mi SSE 4.6 mph - 0.02 in   Drizzle
9:55 AM 42.8 °F 39.3 °F 41.0 °F 93% 30.20 in 4.0 mi South 5.8 mph - 0.03 in Rain Rain
10:15 AM 42.8 °F 40.1 °F 41.0 °F 93% 30.20 in 4.0 mi South 4.6 mph - 0.02 in Rain Light Rain
10:35 AM 42.8 °F 38.6 °F 41.0 °F 93% 30.21 in 4.0 mi South 6.9 mph - 0.04 in Rain Rain
10:55 AM 42.8 °F 41.1 °F 41.0 °F 93% 30.21 in 5.0 mi SSW 3.5 mph - 0.07 in Rain Rain
11:15 AM 42.8 °F 37.0 °F 41.0 °F 93% 30.21 in 5.0 mi SW 10.4 mph - 0.01 in Rain Light Rain
11:35 AM 42.8 °F 38.6 °F 41.0 °F 93% 30.21 in 5.0 mi South 6.9 mph - 0.03 in Rain Rain
11:55 AM 44.6 °F 39.7 °F 41.0 °F 87% 30.18 in 10.0 mi SE 9.2 mph - 0.04 in   Overcast
12:15 PM 44.6 °F 42.2 °F 41.0 °F 87% 30.19 in 10.0 mi SSW 4.6 mph - N/A   Overcast
12:35 PM 44.6 °F 40.7 °F 41.0 °F 87% 30.18 in 10.0 mi SSE 6.9 mph - N/A   Overcast
12:55 PM 44.6 °F 41.4 °F 41.0 °F 87% 30.19 in 10.0 mi South 5.8 mph - N/A   Overcast
1:15 PM 44.6 °F 39.7 °F 41.0 °F 87% 30.19 in 10.0 mi South 9.2 mph - N/A   Overcast
1:35 PM 44.6 °F 40.7 °F 41.0 °F 87% 30.18 in 10.0 mi SSE 6.9 mph - N/A   Overcast
1:55 PM 44.6 °F 40.7 °F 39.2 °F 81% 30.17 in 10.0 mi South 6.9 mph - N/A   Overcast
2:15 PM 46.4 °F 41.9 °F 41.0 °F 81% 30.16 in 10.0 mi SSW 9.2 mph - N/A   Overcast
2:35 PM 44.6 °F 40.7 °F 41.0 °F 87% 30.16 in 7.0 mi SSW 6.9 mph - N/A   Light Drizzle
2:55 PM 46.4 °F 41.1 °F 41.0 °F 81% 30.15 in 7.0 mi SSW 11.5 mph 16.1 mph N/A   Light Drizzle
3:15 PM 46.4 °F 40.7 °F 42.8 °F 87% 30.15 in 4.0 mi SSW 12.7 mph 18.4 mph N/A   Drizzle
3:35 PM 46.4 °F 41.1 °F 42.8 °F 87% 30.14 in 4.0 mi SSW 11.5 mph 19.6 mph 0.01 in Rain Light Rain
3:55 PM 46.4 °F 40.4 °F 42.8 °F 87% 30.14 in 7.0 mi SSW 13.8 mph 20.7 mph 0.01 in Rain Light Rain
4:15 PM 46.4 °F 39.5 °F 44.6 °F 93% 30.14 in 5.0 mi SSW 17.3 mph 20.7 mph 0.01 in Rain Light Rain
4:35 PM 46.4 °F 40.1 °F 44.6 °F 93% 30.13 in 4.0 mi SSW 15.0 mph 19.6 mph 0.01 in   Drizzle
4:55 PM 46.4 °F 40.4 °F 42.8 °F 87% 30.13 in 7.0 mi South 13.8 mph 21.9 mph 0.01 in Rain Rain
5:15 PM 46.4 °F 41.5 °F 44.6 °F 93% 30.13 in 5.0 mi SSW 10.4 mph 20.7 mph 0.01 in Rain Light Rain
5:35 PM 48.2 °F - 44.6 °F 87% 30.14 in 10.0 mi SSW 9.2 mph 17.3 mph 0.01 in   Overcast
5:55 PM 48.2 °F - 44.6 °F 87% 30.14 in 10.0 mi SSW 8.1 mph - 0.01 in   Overcast
6:15 PM 48.2 °F - 44.6 °F 87% 30.14 in 7.0 mi SW 8.1 mph - N/A   Overcast
6:35 PM 48.2 °F - 44.6 °F 87% 30.14 in 7.0 mi SW 5.8 mph - N/A   Overcast
6:55 PM 48.2 °F - 44.6 °F 87% 30.14 in 7.0 mi SW 8.1 mph - N/A   Drizzle
7:15 PM 46.4 °F 44.3 °F 42.8 °F 87% 30.16 in 7.0 mi WSW 4.6 mph - 0.03 in Rain Light Rain
7:35 PM 44.6 °F 43.1 °F 42.8 °F 93% 30.16 in 10.0 mi South 3.5 mph - 0.03 in Rain Light Rain
7:55 PM 44.6 °F - 42.8 °F 93% 30.17 in 7.0 mi Calm Calm - 0.04 in   Drizzle
8:15 PM 44.6 °F 42.2 °F 44.6 °F 100% 30.17 in 7.0 mi ESE 4.6 mph - N/A   Light Drizzle
8:35 PM 44.6 °F 41.4 °F 42.8 °F 93% 30.16 in 7.0 mi SSE 5.8 mph - N/A   Overcast
8:55 PM 44.6 °F 41.4 °F 42.8 °F 93% 30.16 in 7.0 mi SSE 5.8 mph - N/A   Overcast
9:15 PM 44.6 °F 43.1 °F 42.8 °F 93% 30.16 in 7.0 mi SSE 3.5 mph - N/A   Overcast
9:35 PM 44.6 °F 41.4 °F 44.6 °F 100% 30.16 in 7.0 mi South 5.8 mph - N/A   Overcast
9:55 PM 44.6 °F 41.4 °F 44.6 °F 100% 30.16 in 7.0 mi South 5.8 mph - N/A   Light Drizzle
10:15 PM 44.6 °F 40.7 °F 42.8 °F 93% 30.16 in 7.0 mi SSE 6.9 mph - N/A   Overcast
10:35 PM 44.6 °F 41.4 °F 42.8 °F 93% 30.17 in 7.0 mi SSE 5.8 mph - N/A   Overcast
10:55 PM 42.8 °F 41.1 °F 42.8 °F 100% 30.17 in 7.0 mi SE 3.5 mph - N/A   Scattered Clouds
11:15 PM 41.0 °F - 41.0 °F 100% 30.18 in 5.0 mi Calm Calm - N/A   Scattered Clouds
11:35 PM 42.8 °F 40.1 °F 42.8 °F 100% 30.18 in 5.0 mi SE 4.6 mph - N/A   Mostly Cloudy
11:55 PM 42.8 °F 40.1 °F 42.8 °F 100% 30.18 in 5.0 mi SSE 4.6 mph - N/A   Mostly Cloudy